EA3FQO-2 Weather Reports


time (UTC)temp
C
wind
direction
speed
KPH
gust
KPH
rain 1hr
cm
rain 24hr
cm
rain mn
cm
humidity
%
barometer
mb
20260507154505 17 28 3.2 8.0 0.00 0.00 0.00 52 1007.7
20260507153005 17 86 3.2 8.0 0.00 0.00 0.00 55 1007.6
20260507151504 19 25 3.2 8.0 0.00 0.00 0.00 46 1007.6
20260507150005 20 358 6.4 9.7 0.00 0.00 0.00 48 1007.7
20260507144504 21 102 3.2 12.9 0.00 0.00 0.00 49 1007.5
20260507143005 20 4 3.2 9.7 0.00 0.00 0.00 47 1007.4
20260507140005 21 334 6.4 11.3 0.00 0.00 0.00 52 1007.5
20260507134505 19 62 3.2 9.7 0.00 0.00 0.00 53 1007.8
20260507133005 20 353 3.2 14.5 0.00 0.00 0.00 50 1007.9
20260507131504 21 81 3.2 9.7 0.00 0.00 0.00 50 1008.0
20260507130005 20 348 6.4 8.0 0.00 0.00 0.00 52 1008.2
20260507124505 19 7 3.2 8.0 0.00 0.00 0.00 55 1008.2
20260507123005 17 53 1.6 8.0 0.00 0.00 0.00 57 1008.1
20260507121504 18 42 0.0 4.8 0.00 0.00 0.00 57 1008.3
20260507120005 20 334 1.6 4.8 0.00 0.00 0.00 51 1008.3
20260507114504 18 337 1.6 6.4 0.00 0.00 0.00 58 1008.5
20260507113005 20 55 6.4 9.7 0.00 0.00 0.00 53 1008.7
20260507111504 18 6 1.6 6.4 0.00 0.00 0.00 60 1008.7
20260507110004 18 96 1.6 4.8 0.00 0.00 0.00 57 1008.9
20260507104505 19 58 6.4 9.7 0.00 0.00 0.00 54 1009.0
20260507103004 17 25 3.2 6.4 0.00 0.00 0.00 64 1009.0
20260507101504 17 84 1.6 6.4 0.00 0.00 0.00 67 1009.0
20260507094504 18 330 1.6 8.0 0.00 0.00 0.00 59 1009.3
20260507093004 17 346 3.2 6.4 0.00 0.00 0.00 64 1009.2
20260507091504 17 296 3.2 4.8 0.00 0.00 0.00 65 1009.3
20260507090004 16 339 0.0 3.2 0.00 0.00 0.00 72 1009.3
20260507084503 15 313 3.2 6.4 0.00 0.00 0.00 79 1009.3
20260507083006 14 0 0.0 0.0 0.00 0.00 0.00 92 1009.4
20260507074506 10 0 0.0 0.0 0.00 0.00 0.00 99 1009.6
20260507073006 10 0 0.0 0.0 0.00 0.00 0.00 99 1009.6
20260507071506 9 0 0.0 0.0 0.00 0.00 0.00 99 1009.6
20260507070010 9 0 0.0 0.0 0.00 0.00 0.00 99 1009.5
20260507064506 8 0 0.0 0.0 0.00 0.00 0.00 99 1009.6
20260507063006 8 0 0.0 0.0 0.00 0.00 0.00 99 1009.5
20260507061505 7 0 0.0 0.0 0.00 0.00 0.00 99 1009.4
20260507060006 6 0 0.0 0.0 0.00 0.00 0.00 99 1009.2
20260507054506 6 0 0.0 0.0 0.00 0.00 0.00 99 1009.3
20260507053005 6 0 0.0 0.0 0.00 0.00 0.00 99 1009.2
20260507051506 6 0 0.0 0.0 0.00 0.00 0.00 99 1009.2
20260507050006 6 0 0.0 0.0 0.00 0.00 0.00 99 1009.1
20260507044505 6 0 0.0 0.0 0.00 0.00 0.00 99 1009.1
20260507043006 6 0 0.0 0.0 0.00 0.00 0.00 99 1009.3
20260507041506 5 0 0.0 0.0 0.00 0.00 0.00 99 1009.1
20260507040005 6 0 0.0 0.0 0.00 0.00 0.00 99 1009.2
20260507034506 6 0 0.0 0.0 0.00 0.00 0.00 99 1008.9
20260507033006 6 0 0.0 0.0 0.00 0.00 0.00 99 1008.9
20260507031505 7 0 0.0 0.0 0.00 0.00 0.00 99 1009.0
20260507024506 7 0 0.0 0.0 0.00 0.00 0.00 99 1009.1
20260507023006 7 0 0.0 0.0 0.00 0.00 0.00 99 1009.3
20260507021505 7 0 0.0 0.0 0.00 0.00 0.00 99 1009.2
20260507014506 7 0 0.0 0.0 0.00 0.00 0.00 97 1009.3
20260507013006 8 0 0.0 0.0 0.00 0.00 0.00 97 1009.5
20260507010005 8 0 0.0 0.0 0.00 0.00 0.00 97 1009.7
20260507004505 8 0 0.0 0.0 0.00 0.00 0.00 96 1009.8
20260507003006 8 0 0.0 0.0 0.00 0.00 0.00 96 1009.9
20260507001505 8 0 0.0 0.0 0.00 0.00 0.00 95 1009.9
20260507000005 8 0 0.0 0.0 0.00 0.00 0.00 94 1010.3
20260506234505 9 0 0.0 0.0 0.00 0.00 0.00 94 1010.3
20260506233006 9 0 0.0 0.0 0.00 0.00 0.00 93 1010.4
20260506231505 9 0 0.0 0.0 0.00 0.00 0.00 93 1010.4
20260506230005 10 0 0.0 0.0 0.00 0.00 0.00 94 1010.4
20260506223005 10 0 0.0 0.0 0.00 0.00 0.00 94 1010.3
20260506221505 10 0 0.0 0.0 0.00 0.00 0.00 94 1010.3
20260506220005 10 0 0.0 0.0 0.00 0.00 0.00 94 1010.2
20260506214505 10 0 0.0 0.0 0.00 0.00 0.00 93 1010.2
20260506213005 10 0 0.0 0.0 0.00 0.00 0.00 93 1010.3
20260506211505 10 0 0.0 0.0 0.00 0.00 0.00 93 1010.1
20260506204504 10 0 0.0 0.0 0.00 0.00 0.00 92 1010.1
20260506203005 10 0 0.0 0.0 0.00 0.00 0.00 91 1009.8
20260506201505 10 0 0.0 0.0 0.00 0.00 0.00 91 1009.8
20260506200005 10 0 0.0 0.0 0.00 0.00 0.00 90 1009.5
20260506193004 10 0 0.0 0.0 0.00 0.00 0.00 89 1009.0
20260506191505 10 0 0.0 0.0 0.00 0.00 0.00 88 1008.9
20260506190005 10 0 0.0 0.0 0.00 0.00 0.00 87 1008.8
20260506184505 10 0 0.0 0.0 0.00 0.03 0.00 86 1008.8
20260506183006 11 0 0.0 0.0 0.00 0.10 0.00 84 1008.6
20260506181504 11 6 0.0 3.2 0.00 0.10 0.00 84 1008.3
20260506180005 11 333 0.0 1.6 0.00 0.10 0.00 83 1008.4
20260506174505 11 341 0.0 6.4 0.00 0.10 0.00 82 1007.9
20260506173005 11 17 3.2 6.4 0.00 0.10 0.00 82 1007.8
20260506171504 11 72 0.0 8.0 0.00 0.10 0.00 80 1007.7
20260506170005 11 70 4.8 11.3 0.00 0.10 0.00 77 1007.4
20260506164505 12 9 6.4 11.3 0.00 0.10 0.00 71 1007.0
20260506161504 14 85 3.2 8.0 0.00 0.10 0.00 67 1006.5